sat.trackr.live / text

‹ back to catalog

ONEWEB-0202

NORAD 48224 · 2021-031Q

PAYLOAD ACTIVE UNKNOWN

§ Identity

Operator
Country
UK
Launch date
2021-04-25
Launch site
VOSTO
Launch vehicle
Mass (kg)
RCS (m²)

Purposes: comms

External: N2YO · Heavens-Above · Gunter

§ Orbital elements

Epoch: 2026-05-24T21:53:43.991808Z

Period
109.55 min
Inclination
87.8945°
Eccentricity
0.0001148
Mean motion
13.14501563 rev/d
Perigee alt
1,204.9 km
Apogee alt
1,206.7 km
Semi-major
7,583.9 km
B*
-5.9247e-4
RAAN
294.3500°
Arg perigee
103.7081°
Mean anomaly
256.4176°
Rev number
24,530

§ Raw data

ONEWEB-02021 48224U 21031Q   26144.91231472 -.00000207  00000+0 -59247-3 0  99932 48224  87.8945 294.3500 0001148 103.7081 256.4176 13.14501563245304

JSON: /api/v1/satellites/48224 · /tle

For live sub-satellite position, see the globe view (requires WebGL).

§ Visibility from observer

Set your observer location to see the next 7 days of passes ≥ 10°. The values pass through the URL so the page stays shareable.

No JS? Fill the form by hand. The geolocation button needs JavaScript.